This is the latest recevied weather packets stored in our database for station/object KI6SYE. If no packets are shown the sender has not sent any weather packets the latest 10 day(s).
| Time | Temp. | Humidity | Pressure | Rain* | Wind** | Luminosity | Snow |
|---|---|---|---|---|---|---|---|
| 1787961051 | 26.11° C | 85% | 1009.9 hPa | 0 mm | - | 287 W/m² | - |
| 1787960745 | 26.11° C | 84% | 1010.1 hPa | 0 mm | - | 316 W/m² | - |
| 1787960445 | 26.67° C | 85% | 1009.8 hPa | 0 mm | - | 328 W/m² | - |
| 1787960134 | 27.22° C | 83% | 1009.7 hPa | 0 mm | - | 346 W/m² | - |
| 1787959834 | 27.22° C | 84% | 1009.6 hPa | 0 mm | - | 359 W/m² | - |
| 1787959529 | 26.67° C | 85% | 1009.7 hPa | 0 mm | - | 374 W/m² | - |
| 1787959229 | 26.67° C | 85% | 1009.8 hPa | 0 mm | - | 369 W/m² | - |
| 1787958923 | 26.67° C | 86% | 1009.9 hPa | 0 mm | - | 399 W/m² | - |
| 1787958619 | 26.67° C | 85% | 1010 hPa | 0 mm | - | 419 W/m² | - |
| 1787958314 | 26.67° C | 85% | 1010.1 hPa | 0 mm | - | 440 W/m² | - |
| 1787958010 | 26.67° C | 86% | 1010.2 hPa | 0 mm | - | 449 W/m² | - |
| 1787957708 | 26.67° C | 85% | 1010 hPa | 0 mm | - | 424 W/m² | - |
| 1787957404 | 26.67° C | 85% | 1010.2 hPa | 0 mm | - | 466 W/m² | - |
| 1787957102 | 26.67° C | 86% | 1010.2 hPa | 0 mm | - | 295 W/m² | - |
| 1787956797 | 26.11° C | 86% | 1010.3 hPa | 0 mm | - | 228 W/m² | - |
| 1787956492 | 26.11° C | 87% | 1010.4 hPa | 0 mm | - | 141 W/m² | - |
| 1787956186 | 26.67° C | 87% | 1010.3 hPa | 0 mm | - | 132 W/m² | - |
| 1787955881 | 26.67° C | 86% | 1010.5 hPa | 0 mm | - | 326 W/m² | - |
| 1787955577 | 26.67° C | 86% | 1010.2 hPa | 0 mm | - | 595 W/m² | - |
| 1787955272 | 26.67° C | 87% | 1010.5 hPa | 0 mm | - | 586 W/m² | - |
| 1787954971 | 26.67° C | 84% | 1010.6 hPa | 0 mm | - | 313 W/m² | - |
| 1787954668 | 26.67° C | 85% | 1010.8 hPa | 0 mm | - | 628 W/m² | - |
| 1787954362 | 26.67° C | 86% | 1010.6 hPa | 0 mm | - | 634 W/m² | - |
| 1787954057 | 27.22° C | 84% | 1010.8 hPa | 0 mm | - | 558 W/m² | - |
| 1787953755 | 27.22° C | 84% | 1010.9 hPa | 0 mm | - | 489 W/m² | - |
* Rain latest hour (hover to see other rain measurements)
** Current wind speed in m/s (hover to see current wind gust speed)